Weather Roundup
Issued by NWS

Home | Current Version | Previous Version | Graphics & Text | Print | Product List | Glossary Off
Versions: 1 2 3 4 5 6 7 8 9 10 11 12 13 14 15 16 17 18 19 20 21 22 23 24 25 26 27 28 29 30 31 32 33 34 35 36 37 38 39 40 41 42 43 44 45 46 47 48 49 50

000
NZUS93 KARX 202359
HRRWXR

CURRENT HOURLY OBSERVATIONS ACROSS
MUCH OF THE UPPER MISSISSIPPI VALLEY
NATIONAL WEATHER SERVICE LA CROSSE WI
700 PM CDT MON OCT 20 2014


...SOUTHEAST MINNESOTA...


CITY           SKY/WX    TMP DP  RH WIND       PRES   REMARKS
ROCHESTER      CLEAR     53  41  63 N8        30.02R
ROCHESTER/MAYO FAIR      57  38  48 NW3       30.01R
WINONA         CLEAR     55  43  62 CALM      30.01R
AUSTIN         CLEAR     55  41  58 CALM      30.01R
ALBERT LEA     CLEAR     57  39  51 NW3       30.01R
DODGE CENTER   PTCLDY    54  41  62 N6        30.02R
PRESTON        CLEAR     53  40  62 N3        30.01R
OWATONNA       CLEAR     50  37  62 N5        30.02R
FARIBAULT      CLEAR     50  39  66 CALM      30.02R
$$

...ELSEWHERE IN MINNESOTA...


CITY           SKY/WX    TMP DP  RH WIND       PRES   REMARKS
MINNEAPOLIS    CLEAR     55  39  54 N9        30.03R
INTNL FALLS    CLOUDY    45  36  70 N3        30.09R
DULUTH         CLOUDY    47  36  65 N8        30.06R
RED WING       CLEAR     55  39  54 N7        30.02R
REDWOOD FALLS  CLEAR     61  39  44 N3        30.03R
MANKATO        CLEAR     57  36  44 NW7       30.02R
WORTHINGTON    CLEAR     57  36  44 N3        30.05R
FAIRMONT       CLEAR     55  30  38 NW5       30.02S
$$

...SOUTHWEST WISCONSIN...


CITY           SKY/WX    TMP DP  RH WIND       PRES   REMARKS
LA CROSSE      PTCLDY    56  40  55 N8        30.00R
PRAIRIE DU CHI CLEAR     58  39  50 CALM      29.97R
BOSCOBEL       PTCLDY    57  41  55 NE3       29.99R
LONE ROCK      NOT AVBL
PLATTEVILLE    CLEAR     54  42  64 N5        29.98R
FORT MC COY    PTCLDY    53  37  55 N3        30.01R
VIROQUA        FAIR      49  40  70 N5        29.99R
WIS DELLS      CLOUDY    54  37  53 N3        29.99R
$$

...ELSEWHERE IN WISCONSIN...


CITY           SKY/WX    TMP DP  RH WIND       PRES   REMARKS
MILWAUKEE      CLOUDY    53  42  66 NW8       29.96R
MADISON        CLOUDY    53  41  63 N3        29.99R
GREEN BAY      LGT RAIN  49  45  86 N6        29.98R
EAU CLAIRE     NOT AVBL
BLACK RVR FLS  CLOUDY    55  37  52 N3        30.00R
MEDFORD        CLOUDY    47  39  74 N3        30.01R
WAUSAU         CLOUDY    49  40  71 NW5       30.00R
WIS RAPIDS     CLOUDY    51  40  65 N5        30.02R
MARSHFIELD     CLOUDY    50  41  71 N5        30.01R
RICE LAKE      CLOUDY    51  39  63 NW6       30.05R
$$

...NORTHEAST IOWA...


CITY           SKY/WX    TMP DP  RH WIND       PRES   REMARKS
DECORAH        CLEAR     57  41  54 N7        29.98R
MASON CITY     CLEAR     50  41  71 NW9       30.03R
CHARLES CITY   CLEAR     57  41  54 NW7       30.00R
OELWEIN        CLEAR     57  41  54 NW8       29.99R
$$

...ELSEWHERE IN IOWA...


CITY           SKY/WX    TMP DP  RH WIND       PRES   REMARKS
DES MOINES     CLEAR     63  38  39 NW7       30.02R
IOWA CITY      CLEAR     61  42  49 NW5       29.99R
FORT DODGE     CLEAR     59  37  44 CALM      30.03R
$$

...NORTHERN ILLINOIS...


CITY           SKY/WX    TMP DP  RH WIND       PRES   REMARKS
CHICAGO-OHARE  MOCLDY    54  45  71 NE8       29.96R
CHICAGO-MIDWAY CLOUDY    57  47  69 N10       29.96R
MOLINE         CLEAR     61  42  49 NW6       29.96R
ROCKFORD       MOCLDY    56  40  55 NE12      29.99R
PEORIA         PTCLDY    62  43  49 NW3       29.96R
$$

NOTE: "FAIR" INDICATES FEW OR NO CLOUDS BELOW 12,000 FEET WITH NO
SIGNIFICANT WEATHER AND/OR OBSTRUCTIONS TO VISIBILITY. WIND
SPEEDS ARE IN MILES-PER-HOUR.



USA.gov is the U.S. government's official web portal to all federal, state and local government web resources and services.